Flag for Nigeria Weather past 2 weeks in Enugu, Nigeria

Now
79 °F

Drizzle. Broken clouds.


Feels Like: 82 °F
Forecast: 72 / 80 °F
Wind: 9 mph from Southwest

Location: Malabo/Fernando Poo

Current Time: Aug 30, 2014 at 5:38:50 PM

Latest Report: Aug 30, 2014 at 5:00 PM


Visibility: 4 mi

Pressure: 29.89 "Hg

Humidity: 84%

Dew point: 73 °F

Location of EnuguLocation

Historic Weather in Enugu — Graph

°F

Enugu temperature yesterday

Maximum temperature yesterday: 79 °F (at 9:00 AM)
Minimum temperature yesterday: 73 °F (at 11:00 PM)
Average temperature yesterday: 77 °F

Past Weeks' High & Low Weather Summary

 TemperatureHumidityPressure
High84 °F (Aug 19, 1:00 PM)100% (Aug 20, 7:00 AM)30.04 "Hg (Aug 20, 7:00 AM)
Low70 °F (Aug 22, 3:00 AM)66% (Aug 22, 12:00 PM)29.83 "Hg (Aug 25, 5:00 PM)
Average77 °F85%29.94 "Hg
* Reported Aug 15 4:00 PM — Aug 30 4:00 PM, Enugu, Weather by CustomWeather, © 2014

Note: Actual official high and low records may vary slightly from our data, if they occured in-between our weather recording intervals... More about our weather records

Advertising

Enugu weather history for previous 24 hours

 ConditionsComfort  
Time TempWeatherWind HumidityBarometerVisibility
4:00 PM
Aug 30
81 °FPartly sunny.12 mph79%29.89 "HgN/A
3:00 PM82 °FBroken clouds.13 mph74%29.89 "HgN/A
2:00 PM82 °FBroken clouds.12 mph74%29.92 "HgN/A
1:00 PM82 °FBroken clouds.13 mph74%29.95 "HgN/A
12:00 PM82 °FScattered clouds.10 mph79%29.95 "HgN/A
11:00 AM81 °FPartly sunny.8 mph79%29.98 "HgN/A
10:00 AM81 °FPartly sunny.5 mph79%29.98 "HgN/A
3:00 AM73 °FPartly cloudy.3 mph94%29.89 "HgN/A
2:00 AM73 °FPartly cloudy.5 mph94%29.89 "Hg6 mi
1:00 AM72 °FPassing clouds.3 mph100%29.92 "Hg6 mi
11:00 PM
Aug 29
73 °FPassing clouds.3 mph94%29.95 "Hg6 mi
10:00 PM75 °FPartly cloudy.5 mph94%29.95 "Hg5 mi
8:00 PM75 °FThunderstorms. Passing clouds.3 mph94%29.92 "Hg6 mi
7:00 PM75 °FThunderstorms. Passing clouds.6 mph94%29.89 "Hg6 mi
6:00 PM77 °FThunderstorms. Scattered clouds.10 mph89%29.86 "Hg6 mi
5:00 PM77 °FThunderstorms. Broken clouds.9 mph89%29.86 "HgN/A
Weather by CustomWeather, © 2014

See weather overviewHow to use our weather pages